Time,TemperatureF,DewpointF,PressureIn,WindDirection,WindDirectionDegrees,WindSpeedMPH,WindSpeedGustMPH,Humidity,HourlyPrecipIn,Conditions,Clouds,dailyrainin,SoftwareType,DateUTC
2013-08-06 00:01:00,68.1,66.0,29.80,North,5,0.0,0.0,94,0.00,,,0.00,weatherlink.com 1.10,2013-08-06 05:01:00,
2013-08-06 00:16:00,67.7,66.0,29.80,North,5,0.0,0.0,95,0.00,,,0.00,weatherlink.com 1.10,2013-08-06 05:16:00,
2013-08-06 00:31:00,67.4,66.0,29.81,North,5,0.0,0.0,95,0.00,,,0.00,weatherlink.com 1.10,2013-08-06 05:31:00,
2013-08-06 00:46:00,67.1,66.0,29.80,North,5,0.0,0.0,95,0.00,,,0.00,weatherlink.com 1.10,2013-08-06 05:46:00,
2013-08-06 01:01:00,67.3,66.0,29.81,North,5,0.0,0.0,96,0.00,,,0.00,weatherlink.com 1.10,2013-08-06 06:01:00,
2013-08-06 01:16:00,67.1,66.0,29.81,North,5,0.0,0.0,96,0.00,,,0.00,weatherlink.com 1.10,2013-08-06 06:16:00,
2013-08-06 01:31:00,66.7,66.0,29.81,North,5,0.0,0.0,96,0.00,,,0.00,weatherlink.com 1.10,2013-08-06 06:31:00,
2013-08-06 01:46:00,66.3,65.0,29.80,North,5,0.0,0.0,96,0.00,,,0.00,weatherlink.com 1.10,2013-08-06 06:46:00,
2013-08-06 02:01:00,65.8,65.0,29.80,North,5,0.0,0.0,96,0.00,,,0.00,weatherlink.com 1.10,2013-08-06 07:01:00,
2013-08-06 02:16:00,65.3,64.0,29.80,North,5,0.0,0.0,96,0.00,,,0.00,weatherlink.com 1.10,2013-08-06 07:16:00,
2013-08-06 02:31:00,64.0,63.0,29.80,North,5,0.0,0.0,96,0.00,,,0.00,weatherlink.com 1.10,2013-08-06 07:31:00,
2013-08-06 02:46:00,63.5,62.0,29.80,North,5,0.0,0.0,96,0.00,,,0.00,weatherlink.com 1.10,2013-08-06 07:46:00,
2013-08-06 03:01:00,63.2,62.0,29.80,North,5,0.0,0.0,96,0.00,,,0.00,weatherlink.com 1.10,2013-08-06 08:01:00,
2013-08-06 03:16:00,63.3,63.0,29.79,North,5,0.0,0.0,97,0.00,,,0.00,weatherlink.com 1.10,2013-08-06 08:16:00,
2013-08-06 03:31:00,63.8,63.0,29.78,North,5,0.0,0.0,97,0.00,,,0.00,weatherlink.com 1.10,2013-08-06 08:31:00,
2013-08-06 03:46:00,64.4,64.0,29.78,North,1,0.0,3.0,97,0.00,,,0.00,weatherlink.com 1.10,2013-08-06 08:46:00,
2013-08-06 04:01:00,63.9,63.0,29.78,North,354,0.0,2.0,97,0.00,,,0.00,weatherlink.com 1.10,2013-08-06 09:01:00,
2013-08-06 04:16:00,63.9,63.0,29.78,North,7,1.0,2.0,97,0.00,,,0.00,weatherlink.com 1.10,2013-08-06 09:16:00,
2013-08-06 04:31:00,63.8,63.0,29.77,NNW,333,0.0,1.0,97,0.00,,,0.00,weatherlink.com 1.10,2013-08-06 09:31:00,
2013-08-06 04:46:00,63.4,63.0,29.78,NNW,333,0.0,0.0,97,0.00,,,0.00,weatherlink.com 1.10,2013-08-06 09:46:00,
2013-08-06 05:01:00,63.1,62.0,29.78,NNW,333,0.0,1.0,97,0.01,,,0.01,weatherlink.com 1.10,2013-08-06 10:01:00,
2013-08-06 05:16:00,62.8,62.0,29.78,NNW,333,0.0,0.0,97,0.01,,,0.01,weatherlink.com 1.10,2013-08-06 10:16:00,
2013-08-06 05:31:00,62.4,62.0,29.79,NNW,333,0.0,1.0,97,0.01,,,0.01,weatherlink.com 1.10,2013-08-06 10:31:00,
2013-08-06 05:46:00,61.9,61.0,29.79,NNW,333,0.0,0.0,97,0.01,,,0.01,weatherlink.com 1.10,2013-08-06 10:46:00,
2013-08-06 06:02:00,61.8,61.0,29.78,NNW,335,0.0,0.0,97,0.00,,,0.01,weatherlink.com 1.10,2013-08-06 11:02:00,
2013-08-06 06:17:00,61.6,61.0,29.79,NNW,335,0.0,0.0,97,0.00,,,0.01,weatherlink.com 1.10,2013-08-06 11:17:00,
2013-08-06 06:32:00,61.9,61.0,29.80,NNW,334,0.0,0.0,98,0.00,,,0.01,weatherlink.com 1.10,2013-08-06 11:32:00,
2013-08-06 06:47:00,62.1,62.0,29.79,NE,34,0.0,0.0,98,0.00,,,0.01,weatherlink.com 1.10,2013-08-06 11:47:00,
2013-08-06 07:02:00,62.2,62.0,29.79,NE,34,0.0,0.0,98,0.00,,,0.01,weatherlink.com 1.10,2013-08-06 12:02:00,
2013-08-06 07:17:00,63.0,63.0,29.80,NE,34,0.0,0.0,98,0.00,,,0.01,weatherlink.com 1.10,2013-08-06 12:17:00,
2013-08-06 07:32:00,64.7,64.0,29.79,NE,34,0.0,0.0,98,0.00,,,0.01,weatherlink.com 1.10,2013-08-06 12:32:00,
2013-08-06 07:47:00,66.9,66.0,29.80,ESE,102,3.0,3.0,96,0.00,,,0.01,weatherlink.com 1.10,2013-08-06 12:47:00,
2013-08-06 08:02:00,68.1,66.0,29.80,East,96,1.0,3.0,93,0.00,,,0.01,weatherlink.com 1.10,2013-08-06 13:02:00,
2013-08-06 08:17:00,68.4,66.0,29.82,SW,231,2.0,3.0,93,0.00,,,0.01,weatherlink.com 1.10,2013-08-06 13:17:00,
2013-08-06 08:32:00,68.7,67.0,29.81,SSW,206,0.0,0.0,94,0.00,,,0.01,weatherlink.com 1.10,2013-08-06 13:32:00,
2013-08-06 08:47:00,70.3,67.0,29.82,ESE,110,0.0,0.0,90,0.00,,,0.01,weatherlink.com 1.10,2013-08-06 13:47:00,
2013-08-06 09:02:00,71.7,68.0,29.82,East,91,0.0,0.0,87,0.00,,,0.01,weatherlink.com 1.10,2013-08-06 14:02:00,
2013-08-06 09:17:00,72.4,68.0,29.82,East,91,0.0,0.0,85,0.00,,,0.01,weatherlink.com 1.10,2013-08-06 14:17:00,
2013-08-06 09:32:00,72.3,69.0,29.81,SE,129,1.0,4.0,88,0.00,,,0.01,weatherlink.com 1.10,2013-08-06 14:32:00,
2013-08-06 09:47:00,73.2,69.0,29.81,West,269,0.0,4.0,87,0.00,,,0.01,weatherlink.com 1.10,2013-08-06 14:47:00,
2013-08-06 10:02:00,73.7,69.0,29.80,East,97,0.0,3.0,85,0.00,,,0.01,weatherlink.com 1.10,2013-08-06 15:02:00,
2013-08-06 10:17:00,74.0,69.0,29.79,ESE,109,1.0,4.0,83,0.00,,,0.01,weatherlink.com 1.10,2013-08-06 15:17:00,
2013-08-06 10:32:00,74.4,69.0,29.79,East,101,1.0,3.0,83,0.00,,,0.01,weatherlink.com 1.10,2013-08-06 15:32:00,
2013-08-06 10:47:00,74.4,69.0,29.77,South,173,1.0,7.0,84,0.00,,,0.01,weatherlink.com 1.10,2013-08-06 15:47:00,
2013-08-06 11:02:00,75.0,70.0,29.75,SSE,147,2.0,7.0,83,0.00,,,0.01,weatherlink.com 1.10,2013-08-06 16:02:00,
2013-08-06 11:17:00,77.1,70.0,29.75,WSW,258,1.0,9.0,79,0.00,,,0.01,weatherlink.com 1.10,2013-08-06 16:17:00,
2013-08-06 11:32:00,76.9,69.0,29.73,SSE,166,2.0,10.0,77,0.00,,,0.01,weatherlink.com 1.10,2013-08-06 16:32:00,
2013-08-06 11:47:00,76.4,68.0,29.74,NW,313,0.0,7.0,76,0.00,,,0.01,weatherlink.com 1.10,2013-08-06 16:47:00,
2013-08-06 12:02:00,77.5,68.0,29.74,SSE,151,0.0,4.0,73,0.00,,,0.01,weatherlink.com 1.10,2013-08-06 17:02:00,
2013-08-06 12:17:00,79.9,68.0,29.76,SW,226,1.0,4.0,68,0.00,,,0.01,weatherlink.com 1.10,2013-08-06 17:17:00,
2013-08-06 12:32:00,80.5,68.0,29.76,SSE,160,2.0,9.0,66,0.00,,,0.01,weatherlink.com 1.10,2013-08-06 17:32:00,
2013-08-06 12:47:00,80.3,67.0,29.75,SW,228,3.0,5.0,65,0.00,,,0.01,weatherlink.com 1.10,2013-08-06 17:47:00,
2013-08-06 13:02:00,81.2,69.0,29.75,SE,146,1.0,9.0,66,0.00,,,0.01,weatherlink.com 1.10,2013-08-06 18:02:00,
2013-08-06 13:18:00,82.1,68.0,29.75,SW,217,4.0,6.0,63,0.00,,,0.01,weatherlink.com 1.10,2013-08-06 18:18:00,
2013-08-06 13:33:00,83.2,69.0,29.75,SW,221,2.0,5.0,63,0.00,,,0.01,weatherlink.com 1.10,2013-08-06 18:33:00,
2013-08-06 13:48:00,84.0,70.0,29.75,SW,223,1.0,5.0,63,0.00,,,0.01,weatherlink.com 1.10,2013-08-06 18:48:00,
2013-08-06 14:03:00,84.5,69.0,29.75,SW,228,5.0,7.0,60,0.00,,,0.01,weatherlink.com 1.10,2013-08-06 19:03:00,
2013-08-06 14:18:00,84.7,69.0,29.75,SE,141,3.0,8.0,59,0.00,,,0.01,weatherlink.com 1.10,2013-08-06 19:18:00,
2013-08-06 14:33:00,84.9,69.0,29.74,SSW,208,6.0,7.0,59,0.00,,,0.01,weatherlink.com 1.10,2013-08-06 19:33:00,
2013-08-06 14:48:00,84.7,68.0,29.75,SW,221,3.0,8.0,58,0.00,,,0.01,weatherlink.com 1.10,2013-08-06 19:48:00,
2013-08-06 15:03:00,85.0,69.0,29.75,SW,221,2.0,5.0,59,0.00,,,0.01,weatherlink.com 1.10,2013-08-06 20:03:00,
2013-08-06 15:18:00,85.5,68.0,29.75,SSW,204,2.0,8.0,57,0.00,,,0.01,weatherlink.com 1.10,2013-08-06 20:18:00,
2013-08-06 15:33:00,85.4,69.0,29.74,SSE,157,2.0,9.0,58,0.00,,,0.01,weatherlink.com 1.10,2013-08-06 20:33:00,
2013-08-06 15:48:00,85.9,70.0,29.74,West,270,1.0,5.0,59,0.00,,,0.01,weatherlink.com 1.10,2013-08-06 20:48:00,
2013-08-06 16:03:00,85.7,70.0,29.74,WNW,288,1.0,7.0,60,0.00,,,0.01,weatherlink.com 1.10,2013-08-06 21:03:00,
2013-08-06 16:18:00,85.9,70.0,29.74,SW,217,4.0,9.0,59,0.00,,,0.01,weatherlink.com 1.10,2013-08-06 21:18:00,
2013-08-06 16:33:00,85.7,70.0,29.74,SSW,212,2.0,7.0,59,0.00,,,0.01,weatherlink.com 1.10,2013-08-06 21:33:00,
2013-08-06 16:48:00,85.4,69.0,29.74,WSW,252,4.0,9.0,58,0.00,,,0.01,weatherlink.com 1.10,2013-08-06 21:48:00,
2013-08-06 17:03:00,86.0,69.0,29.74,SW,221,0.0,6.0,58,0.00,,,0.01,weatherlink.com 1.10,2013-08-06 22:03:00,
2013-08-06 17:18:00,85.5,68.0,29.74,West,269,1.0,8.0,56,0.00,,,0.01,weatherlink.com 1.10,2013-08-06 22:18:00,
2013-08-06 17:33:00,85.2,68.0,29.74,WNW,283,2.0,7.0,57,0.00,,,0.01,weatherlink.com 1.10,2013-08-06 22:33:00,
2013-08-06 17:48:00,85.4,68.0,29.73,SSW,203,2.0,5.0,57,0.00,,,0.01,weatherlink.com 1.10,2013-08-06 22:48:00,
2013-08-06 18:03:00,85.1,68.0,29.73,WNW,301,1.0,5.0,57,0.00,,,0.01,weatherlink.com 1.10,2013-08-06 23:03:00,
2013-08-06 18:18:00,84.9,69.0,29.73,SSE,165,2.0,5.0,59,0.00,,,0.01,weatherlink.com 1.10,2013-08-06 23:18:00,
2013-08-06 18:33:00,84.7,69.0,29.73,SSW,212,1.0,4.0,59,0.00,,,0.01,weatherlink.com 1.10,2013-08-06 23:33:00,
2013-08-06 18:48:00,84.2,69.0,29.72,SSW,202,2.0,5.0,60,0.00,,,0.01,weatherlink.com 1.10,2013-08-06 23:48:00,
2013-08-06 19:03:00,83.1,69.0,29.72,SW,221,1.0,4.0,62,0.00,,,0.01,weatherlink.com 1.10,2013-08-07 00:03:00,
2013-08-06 19:18:00,82.0,69.0,29.72,SW,233,2.0,5.0,64,0.00,,,0.01,weatherlink.com 1.10,2013-08-07 00:18:00,
2013-08-06 19:33:00,81.2,70.0,29.71,SW,230,2.0,4.0,69,0.00,,,0.01,weatherlink.com 1.10,2013-08-07 00:33:00,
2013-08-06 19:48:00,80.5,70.0,29.70,SSW,207,2.0,6.0,71,0.00,,,0.01,weatherlink.com 1.10,2013-08-07 00:48:00,
2013-08-06 20:03:00,79.3,70.0,29.70,SW,218,1.0,4.0,74,0.00,,,0.01,weatherlink.com 1.10,2013-08-07 01:03:00,
2013-08-06 20:18:00,77.9,70.0,29.70,SW,223,0.0,3.0,76,0.00,,,0.01,weatherlink.com 1.10,2013-08-07 01:18:00,
2013-08-06 20:33:00,76.8,69.0,29.71,SSW,212,0.0,2.0,78,0.00,,,0.01,weatherlink.com 1.10,2013-08-07 01:33:00,
2013-08-06 20:48:00,76.1,69.0,29.71,SW,228,1.0,3.0,79,0.00,,,0.01,weatherlink.com 1.10,2013-08-07 01:48:00,
2013-08-06 21:03:00,75.3,69.0,29.72,WSW,244,0.0,2.0,80,0.00,,,0.01,weatherlink.com 1.10,2013-08-07 02:03:00,
2013-08-06 21:18:00,74.8,69.0,29.72,SSW,205,0.0,3.0,81,0.00,,,0.01,weatherlink.com 1.10,2013-08-07 02:18:00,
2013-08-06 21:33:00,74.7,69.0,29.73,WSW,243,1.0,4.0,81,0.00,,,0.01,weatherlink.com 1.10,2013-08-07 02:33:00,
2013-08-06 21:48:00,74.6,69.0,29.74,WSW,253,0.0,3.0,82,0.00,,,0.01,weatherlink.com 1.10,2013-08-07 02:48:00,
2013-08-06 22:03:00,73.9,69.0,29.74,WSW,246,0.0,2.0,83,0.00,,,0.01,weatherlink.com 1.10,2013-08-07 03:03:00,
2013-08-06 22:18:00,73.5,69.0,29.74,WSW,255,1.0,2.0,85,0.00,,,0.01,weatherlink.com 1.10,2013-08-07 03:18:00,
2013-08-06 22:33:00,73.5,68.0,29.75,SW,214,0.0,4.0,84,0.00,,,0.01,weatherlink.com 1.10,2013-08-07 03:33:00,
2013-08-06 22:48:00,73.0,68.0,29.74,SW,233,2.0,3.0,85,0.00,,,0.01,weatherlink.com 1.10,2013-08-07 03:48:00,
2013-08-06 23:03:00,71.8,68.0,29.75,SW,231,0.0,2.0,87,0.00,,,0.01,weatherlink.com 1.10,2013-08-07 04:03:00,
2013-08-06 23:18:00,71.4,68.0,29.75,SW,217,0.0,2.0,88,0.00,,,0.01,weatherlink.com 1.10,2013-08-07 04:18:00,
2013-08-06 23:33:00,71.5,68.0,29.75,WSW,240,1.0,3.0,88,0.00,,,0.01,weatherlink.com 1.10,2013-08-07 04:33:00,
2013-08-06 23:48:00,71.5,68.0,29.75,SSW,204,0.0,2.0,88,0.00,,,0.01,weatherlink.com 1.10,2013-08-07 04:48:00,